Tue, 11 May 2021 10:44:06 UTC

Information for RPM ethtool-6-1.fc9.ppc.rpm

ID484567
Nameethtool
Version6
Release1.fc9
Epoch
Archppc
SummaryEthernet settings tool for PCI ethernet cards
DescriptionThis utility allows querying and changing of ethernet card settings, such as speed, port, autonegotiation, and PCI locations.
Build Time2008-03-12 15:51:34 GMT
Size70,793
54f606a5d23a5b40d1031a13b0748c28
LicenseGPL+
Buildrootdist-f9-build-159308-26343
Provides
ethtool = 6-1.fc9
Obsoletes No Obsoletes
Conflicts No Conflicts
Requires
libc.so.6
libc.so.6(GLIBC_2.0)
libc.so.6(GLIBC_2.1)
libc.so.6(GLIBC_2.3.4)
libc.so.6(GLIBC_2.4)
rpmlib(CompressedFileNames) <= 3.0.4-1
rpmlib(PayloadFilesHavePrefix) <= 4.0-1
rtld(GNU_HASH)
Recommends No Recommends
Suggests No Suggests
Supplements No Supplements
Enhances No Enhances
Files
1 through 10 of 10
Name ascending sort Size
/sbin/ethtool118,272
/usr/sbin/ethtool13
/usr/share/doc/ethtool-64,096
/usr/share/doc/ethtool-6/AUTHORS267
/usr/share/doc/ethtool-6/COPYING17,992
/usr/share/doc/ethtool-6/ChangeLog11,384
/usr/share/doc/ethtool-6/INSTALL9,273
/usr/share/doc/ethtool-6/NEWS3,938
/usr/share/doc/ethtool-6/README127
/usr/share/man/man8/ethtool.8.gz3,135
Component of
Page:
1 through 50 of 14408 >>>
Buildroot descending sort Created State
dist-f10-build-348058-64577 2009-02-13 00:08:06 expired
dist-f10-build-348025-64577 2009-02-12 23:13:35 expired
dist-f9-build-348001-64575 2009-02-12 22:16:07 expired
dist-f10-build-347989-64577 2009-02-12 21:23:24 expired
dist-f10-build-347969-64577 2009-02-12 20:46:45 expired
dist-f10-build-347961-64577 2009-02-12 20:38:09 expired
dist-f10-build-347943-64577 2009-02-12 20:24:36 expired
dist-f10-build-347942-64577 2009-02-12 20:23:16 expired
dist-f10-build-347931-64577 2009-02-12 20:17:16 expired
dist-f10-build-347924-64577 2009-02-12 20:02:17 expired
dist-f10-build-347896-64577 2009-02-12 18:27:03 expired
dist-f10-build-347850-64460 2009-02-12 16:29:16 expired
dist-f10-build-347843-64460 2009-02-12 16:26:25 expired
dist-f9-build-347807-64458 2009-02-12 15:58:16 expired
dist-f10-build-347804-64460 2009-02-12 15:58:10 expired
dist-f9-build-347794-64458 2009-02-12 15:56:09 expired
dist-f10-build-347769-64460 2009-02-12 15:40:25 expired
dist-f10-build-347736-64460 2009-02-12 14:59:01 expired
dist-f9-build-347714-64458 2009-02-12 14:38:50 expired
dist-f10-build-347710-64460 2009-02-12 14:38:41 expired
dist-f9-build-347684-64458 2009-02-12 14:13:47 expired
dist-f10-build-347667-64460 2009-02-12 14:00:14 expired
dist-f10-build-347615-64460 2009-02-12 12:45:28 expired
dist-f10-build-347595-64460 2009-02-12 12:31:26 expired
dist-f10-build-347580-64460 2009-02-12 12:01:36 expired
dist-f10-build-347573-64460 2009-02-12 11:53:17 expired
dist-f10-build-347565-64460 2009-02-12 11:40:42 expired
dist-f10-build-347544-64460 2009-02-12 10:43:29 expired
dist-f10-build-347459-64460 2009-02-12 07:28:01 expired
dist-f10-build-347448-64460 2009-02-12 05:55:41 expired
dist-f10-build-347446-64460 2009-02-12 05:53:50 expired
dist-f10-build-347430-64460 2009-02-12 05:16:52 expired
dist-f10-build-347415-64460 2009-02-12 04:39:17 expired
dist-f10-build-347412-64460 2009-02-12 04:18:00 expired
dist-f10-build-347409-64460 2009-02-12 03:42:30 expired
dist-f10-build-347405-64460 2009-02-12 03:42:27 expired
dist-f10-build-347394-64460 2009-02-12 03:32:07 expired
dist-f10-build-347391-64460 2009-02-12 02:51:29 expired
dist-f10-build-347362-64441 2009-02-11 23:29:51 expired
dist-f10-build-347354-64441 2009-02-11 22:57:11 expired
dist-f10-build-347352-64441 2009-02-11 22:56:02 expired
dist-f10-build-347344-64441 2009-02-11 22:32:14 expired
dist-f9-build-347333-64439 2009-02-11 22:04:05 expired
dist-f10-build-347329-64441 2009-02-11 22:03:33 expired
dist-f10-build-347307-64432 2009-02-11 20:54:28 expired
dist-f10-build-347264-64406 2009-02-11 19:39:27 expired
dist-f10-build-347257-64406 2009-02-11 19:21:17 expired
dist-f10-build-347236-64406 2009-02-11 18:21:14 expired
dist-f10-build-347216-64406 2009-02-11 18:01:26 expired
dist-f10-build-347189-64372 2009-02-11 17:29:33 expired